This demonstration page uses our WeatherBlox Daily Observations layout. Learn more.

41.55636, -103.73856

Hourly Observations for May 29, 2015

Temp ( °F °C ) Dew Point ( °F °C ) Humidity (%) Winds ( mph kmh ) Pressure ( in mb ) Visibility ( mi km ) Precip ( " mm )
12:53 am 00:53 Mostly Clear 54 12 52 11 94 94 WNW 7 11 30 1016 10 16.09344 0 0
1:53 am 01:53 Clear 54 12 50 10 88 88 NW 6 9 30 1016 10 16.09344 0 0
2:53 am 02:53 Clear 50 10 48 9 94 94 NW 6 9 30.03 1017 10 16.09344 0 0
3:53 am 03:53 Clear 52 11 48 9 88 88 W 7 11 30.03 1017 10 16.09344 0 0
4:53 am 04:53 Cloudy 52 11 48 9 88 88 W 8 13 30.03 1017 10 16.09344 0 0
5:53 am 05:53 Partly Cloudy 52 11 50 10 94 94 W 6 9 30.03 1017 10 16.09344 0 0
6:53 am 06:53 Cloudy 54 12 52 11 94 94 W 9 15 30.06 1018 10 16.09344 0 0
7:53 am 07:53 Cloudy 55 13 52 11 88 88 W 8 13 30.03 1017 10 16.09344 0 0
8:53 am 08:53 Cloudy 57 14 52 11 82 82 WNW 8 13 30.03 1017 10 16.09344 0 0
9:31 am 09:31 Cloudy with Light Rain 55 13 52 11 88 88 NW 10 17 30.03 1017 9 14.484096 0.001 0.001
9:53 am 09:53 Cloudy with Light Rain 54 12 52 11 94 94 NNW 9 15 30.09 1019 6 9.656064 0.02 0.508
10:53 am 10:53 Cloudy with Rain 54 12 52 11 94 94 WNW 6 9 30.09 1019 4 6.437376 0.17 4.318
11:53 am 11:53 Cloudy with Light Rain 54 12 54 12 100 100 WSW 10 17 30.09 1019 6 9.656064 0.11 2.794
12:03 pm 12:03 Cloudy with Rain 54 12 54 12 100 100 W 8 13 30.12 1020 2.5 4.02336 0 0
12:09 pm 12:09 Cloudy with Heavy Rain 54 12 54 12 100 100 NW 7 11 30.12 1020 0.75 1.207008 0.09 2.286
12:22 pm 12:22 Cloudy with Rain 52 11 52 11 100 100 NNE 7 11 30.15 1021 2 3.218688 0 0
12:31 pm 12:31 Cloudy with Heavy Rain 52 11 52 11 100 100 N 9 15 30.15 1021 2 3.218688 0.29 7.366
12:38 pm 12:38 Cloudy with Heavy Rain 52 11 N/A N/A NNE 10 17 30.15 1021 1.75 2.816352 0 0
12:53 pm 12:53 Cloudy with Rain 52 11 N/A N/A NNE 13 20 30.18 1022 2 3.218688 0.38 9.652
1:07 pm 13:07 Cloudy with Rain 52 11 N/A N/A NE 12 19 30.18 1022 3 4.828032 0.04 1.016
1:53 pm 13:53 Cloudy with Light Rain 52 11 48 9 88 88 NNE 16 26 30.18 1022 5 8.04672 0.1 2.54
2:18 pm 14:18 Cloudy with Light Rain 52 11 48 9 88 88 NNE 13 20 30.18 1022 9 14.484096 0 0
2:43 pm 14:43 Cloudy with Light Rain 50 10 48 9 94 94 N 12 19 30.18 1022 1.5 2.414016 0.04 1.016
2:53 pm 14:53 Cloudy with Light Rain 50 10 46 8 88 88 NNE 14 22 30.18 1022 4 6.437376 0.06 1.524
3:53 pm 15:53 Cloudy with Light Rain 52 11 48 9 88 88 NNE 17 28 30.21 1023 8 12.874752 0.02 0.508
4:53 pm 16:53 Cloudy with Light Rain 54 12 48 9 82 82 NNE 15 24 30.21 1023 10 16.09344 0.01 0.254
5:53 pm 17:53 Cloudy with Light Rain 52 11 48 9 88 88 NNE 14 22 30.21 1023 10 16.09344 0.001 0.001
6:33 pm 18:33 Mostly Cloudy 52 11 46 8 82 82 NNE 10 17 30.21 1023 10 16.09344 0.001 0.001
6:53 pm 18:53 Cloudy 52 11 46 8 82 82 NNE 8 13 30.24 1024 10 16.09344 0.001 0.001
7:53 pm 19:53 Cloudy 50 10 46 8 88 88 NNE 9 15 30.27 1025 10 16.09344 0 0
8:53 pm 20:53 Cloudy 48 9 46 8 94 94 E 6 9 30.27 1025 10 16.09344 0 0
9:06 pm 21:06 Mostly Cloudy 48 9 45 7 87 87 ENE 6 9 30.27 1025 10 16.09344 0 0
9:53 pm 21:53 Clear 46 8 45 7 93 93 Calm 30.3 1026 10 16.09344 0 0
10:29 pm 22:29 Mostly Cloudy 46 8 45 7 93 93 Calm 30.3 1026 10 16.09344 0 0
10:51 pm 22:51 Cloudy 46 8 45 7 93 93 Calm 30.3 1026 10 16.09344 0 0
10:53 pm 22:53 Cloudy 46 8 46 8 100 100 Calm 30.3 1026 10 16.09344 0 0
11:53 pm 23:53 Cloudy 48 9 46 8 94 94 NE 7 11 30.27 1025 10 16.09344 0 0

Powered by AerisWeather